Kingstree, SC

5:12 PM EST on February 24, 2018 (GMT -0500)
Williamsburg County

Weather History for KCKI - November, 2012

Change the Weather History Date:

Wednesday, November 14, 2012

  Actual Average Record
Temperature  
Mean Temperature 50 °F -  
Max Temperature 53 °F 65 °F 78 °F (2011)
Min Temperature 46 °F 34 °F 26 °F (2013)
Degree Days  
Heating Degree Days 16    
Moisture  
Dew Point 44 °F    
Average Humidity 78    
Maximum Humidity 88    
Minimum Humidity 71    
Precipitation  
Precipitation 0.00 in - - ()
Sea Level Pressure  
Sea Level Pressure 30.34 in    
Wind  
Wind Speed 7 mph (North)    
Max Wind Speed 10 mph    
Max Gust Speed 18 mph    
Visibility 10 miles    
Events      
Averages and records for this station are not official NWS values.
T = Trace of Precipitation, MM = Missing Value Source: NWS Daily Summary

Daily Weather History Graph

Daily Weather History Graph

Search for Another Location

Airport or City:

Trip Planner

Search our weather history database for the weather conditions in past years. The results will help you decide how hot, cold, wet, or windy it might be!

Date:

Astronomy

Nov. 14, 2012 Rise Set
Actual Time 6:50 AM EST 5:16 PM EST
Civil Twilight 6:24 AM EST 5:43 PM EST
Nautical Twilight 5:54 AM EST 6:13 PM EST
Astronomical Twilight 5:24 AM EST 6:42 PM EST
Moon 7:35 AM EST (11/14) 6:06 PM EST (11/14)
Length of Visible Light 11h 18m
Length of Day
10h 25m
New Moon, 1% of the Moon is Illuminated
Nov 14
New Moon
Nov 20
First Quarter
Nov 28
Full
Dec 6
Last Quarter
Dec 13
New

Hourly Weather History & Observations

Time (EST) Temp. Windchill Dew Point Humidity Pressure Visibility Wind Dir Wind Speed Gust Speed Precip Events Conditions
12:15 AM 51.8 °F - 48.2 °F 88% 30.33 in - North 8.1 mph - N/A   Unknown
12:35 AM 50.0 °F - 46.4 °F 87% 30.33 in - North 5.8 mph - N/A   Unknown
12:55 AM 50.0 °F - 46.4 °F 87% 30.33 in - North 10.4 mph 16.1 mph N/A   Unknown
1:15 AM 50.0 °F - 46.4 °F 87% 30.32 in - NNE 6.9 mph - N/A   Unknown
1:35 AM 50.0 °F - 44.6 °F 82% 30.33 in - North 3.5 mph - N/A   Clear
1:55 AM 50.0 °F - 44.6 °F 82% 30.33 in - North 9.2 mph - N/A   Clear
2:15 AM 50.0 °F - 44.6 °F 82% 30.33 in - North 6.9 mph - N/A   Clear
2:35 AM 50.0 °F - 44.6 °F 82% 30.33 in - NNE 9.2 mph - N/A   Clear
2:55 AM 50.0 °F - 42.8 °F 76% 30.33 in - NNE 4.6 mph - N/A   Clear
3:15 AM 48.2 °F - 42.8 °F 82% 30.33 in - NNE 6.9 mph - N/A   Clear
3:35 AM 48.2 °F - 42.8 °F 82% 30.33 in - North 3.5 mph - N/A   Clear
3:55 AM 48.2 °F - 42.8 °F 82% 30.33 in - North 10.4 mph 16.1 mph N/A   Clear
4:15 AM 48.2 °F - 42.8 °F 82% 30.33 in - North 8.1 mph - N/A   Clear
4:35 AM 48.2 °F - 42.8 °F 82% 30.34 in - North 6.9 mph - N/A   Clear
4:55 AM 48.2 °F - 42.8 °F 82% 30.34 in - North 3.5 mph - N/A   Clear
5:15 AM 48.2 °F - 42.8 °F 82% 30.35 in - North 4.6 mph - N/A   Clear
5:35 AM 48.2 °F - 42.8 °F 82% 30.35 in - North 6.9 mph - N/A   Clear
5:55 AM 48.2 °F - 42.8 °F 82% 30.35 in - North 10.4 mph 16.1 mph N/A   Clear
6:15 AM 48.2 °F - 42.8 °F 82% 30.36 in - NNE 5.8 mph - N/A   Clear
6:35 AM 48.2 °F - 42.8 °F 82% 30.36 in - NNE 8.1 mph 16.1 mph N/A   Clear
6:55 AM 48.2 °F - 42.8 °F 82% 30.37 in - North 8.1 mph - N/A   Clear
7:15 AM 48.2 °F - 42.8 °F 82% 30.37 in - North 6.9 mph - N/A   Clear
7:35 AM 46.4 °F 44.3 °F 42.8 °F 87% 30.38 in - North 4.6 mph - N/A   Unknown
7:55 AM 46.4 °F 42.4 °F 42.8 °F 87% 30.38 in - North 8.1 mph - N/A   Unknown
8:15 AM 48.2 °F - 42.8 °F 82% 30.38 in - North 10.4 mph 18.4 mph N/A   Clear
8:35 AM 48.2 °F - 42.8 °F 82% 30.39 in - North 6.9 mph - N/A   Clear
8:55 AM 48.2 °F - 42.8 °F 82% 30.39 in - North 5.8 mph - N/A   Clear
9:15 AM 48.2 °F - 42.8 °F 82% 30.40 in - NNE 6.9 mph - N/A   Clear
9:35 AM 48.2 °F - 42.8 °F 82% 30.40 in - North 6.9 mph - N/A   Clear
9:55 AM 50.0 °F - 42.8 °F 76% 30.40 in - NNW 6.9 mph - N/A   Clear
10:15 AM 50.0 °F - 42.8 °F 76% 30.41 in - North 4.6 mph - N/A   Clear
10:55 AM 50.0 °F - 42.8 °F 76% 30.40 in - North 9.2 mph - N/A   Clear
11:15 AM 50.0 °F - 42.8 °F 76% 30.40 in - North 8.1 mph - N/A   Clear
11:35 AM 50.0 °F - 42.8 °F 76% 30.40 in - North 4.6 mph - N/A   Clear
11:55 AM 50.0 °F - 42.8 °F 76% 30.40 in - NNW 8.1 mph - N/A   Clear
12:15 PM 50.0 °F - 42.8 °F 76% 30.38 in - North 9.2 mph - N/A   Clear
12:35 PM 50.0 °F - 42.8 °F 76% 30.37 in - NNW 5.8 mph - N/A   Clear
1:15 PM 51.8 °F - 42.8 °F 71% 30.35 in - North 8.1 mph - N/A   Clear
1:35 PM 51.8 °F - 42.8 °F 71% 30.35 in - NNW 5.8 mph - N/A   Clear
1:55 PM 51.8 °F - 44.6 °F 76% 30.34 in - NNW 8.1 mph - N/A   Clear
2:15 PM 51.8 °F - 44.6 °F 76% 30.33 in - NNE 6.9 mph - N/A   Clear
2:35 PM 53.6 °F - 44.6 °F 72% 30.33 in 7.0 mi North 4.6 mph - N/A   Clear
2:55 PM 53.6 °F - 44.6 °F 72% 30.32 in 10.0 mi North 5.8 mph - N/A   Clear
3:15 PM 53.6 °F - 44.6 °F 72% 30.32 in 10.0 mi NNW 8.1 mph - N/A   Clear
3:55 PM 53.6 °F - 44.6 °F 72% 30.32 in 10.0 mi North 6.9 mph - N/A   Clear
4:15 PM 53.6 °F - 46.4 °F 77% 30.32 in 10.0 mi North 5.8 mph - N/A   Unknown
4:35 PM 53.6 °F - 46.4 °F 77% 30.32 in 10.0 mi North 8.1 mph - N/A   Clear
4:55 PM 53.6 °F - 46.4 °F 77% 30.32 in 10.0 mi NNE 3.5 mph - N/A   Clear
5:15 PM 53.6 °F - 46.4 °F 77% 30.31 in 10.0 mi North 3.5 mph - N/A   Clear
5:35 PM 53.6 °F - 46.4 °F 77% 30.32 in 10.0 mi North 5.8 mph - N/A   Clear
5:55 PM 53.6 °F - 46.4 °F 77% 30.32 in 10.0 mi North 4.6 mph - N/A   Clear
6:15 PM 53.6 °F - 46.4 °F 77% 30.32 in 10.0 mi North 4.6 mph - N/A   Clear
6:35 PM 53.6 °F - 46.4 °F 77% 30.32 in 10.0 mi North 8.1 mph - N/A   Clear
6:55 PM 53.6 °F - 46.4 °F 77% 30.33 in 10.0 mi NNE 4.6 mph - N/A   Clear
7:15 PM 53.6 °F - 46.4 °F 77% 30.32 in 10.0 mi North 4.6 mph - N/A   Clear
7:35 PM 51.8 °F - 46.4 °F 82% 30.31 in 10.0 mi NNE 8.1 mph - N/A   Clear
7:55 PM 51.8 °F - 44.6 °F 76% 30.32 in 10.0 mi North 3.5 mph - N/A   Clear
8:15 PM 51.8 °F - 44.6 °F 76% 30.32 in 10.0 mi Calm Calm - N/A   Clear
8:35 PM 51.8 °F - 44.6 °F 76% 30.33 in 10.0 mi North 4.6 mph - N/A   Clear
8:55 PM 51.8 °F - 42.8 °F 71% 30.33 in 10.0 mi North 5.8 mph - N/A   Clear
9:15 PM 51.8 °F - 42.8 °F 71% 30.33 in 10.0 mi North 4.6 mph - N/A   Clear
9:35 PM 51.8 °F - 44.6 °F 76% 30.33 in 10.0 mi NNE 3.5 mph - N/A   Clear
9:55 PM 51.8 °F - 44.6 °F 76% 30.33 in 10.0 mi NNE 5.8 mph - N/A   Clear
10:15 PM 51.8 °F - 42.8 °F 71% 30.32 in 10.0 mi NNE 6.9 mph - N/A   Clear
10:35 PM 51.8 °F - 42.8 °F 71% 30.32 in 10.0 mi North 4.6 mph - N/A   Clear
10:55 PM 51.8 °F - 42.8 °F 71% 30.31 in 10.0 mi NNE 5.8 mph - N/A   Clear
11:15 PM 51.8 °F - 44.6 °F 76% 30.31 in 10.0 mi NNE 3.5 mph - N/A   Clear
11:35 PM 51.8 °F - 44.6 °F 76% 30.31 in 10.0 mi NNE 5.8 mph - N/A   Clear
11:55 PM 51.8 °F - 44.6 °F 76% 30.30 in 10.0 mi NNE 6.9 mph - N/A   Clear